Location: *
(50.2903°S, 172.5375°W)
Time: 05:48:55
(UTC+00:00)

Cosmos 1833 - Pass Details

Date: 17 November 2019
Orbit: 835 x 864 km, 70.9° (Epoch: 09 December)

Event Time Altitude Azimuth Distance (km) Brightness Sun altitude
Rises 14:26:25 0° 210° (SSW) 3,471 7.6 -8.9°
Reaches altitude 10° 14:28:55 10° 209° (SSW) 2,525 6.9 -8.6°
Maximum altitude 14:34:45 84° 120° (ESE) 873 4.4 -8.0°
Drops below altitude 10° 14:40:28 10° 31° (NNE) 2,477 6.5 -7.3°
Sets 14:42:53 0° 29° (NNE) 3,401 7.2 -7.0°
